| time (UTC) | temp C | wind direction | speed KPH | gust KPH | rain 1hr cm | rain 24hr cm | rain mn cm | humidity % | barometer mb |
| 20260506061542 | 13 | 89 | 4.8 | 14.5 | 0.00 | 0.00 | 0.00 | 78 | 1008.7 |
| 20260506044542 | 13 | 42 | 1.6 | 9.7 | 0.00 | 0.00 | 0.00 | 78 | 1009.0 |
| 20260506043029 | 14 | 110 | 0.0 | 11.3 | 0.00 | 0.00 | 0.00 | 79 | 1009.0 |
| 20260506041528 | 14 | 328 | 0.0 | 8.0 | 0.00 | 0.00 | 0.00 | 79 | 1008.8 |
| 20260506040048 | 15 | 343 | 0.0 | 9.7 | 0.00 | 0.00 | 0.00 | 80 | 1008.8 |
| 20260506034527 | 15 | 11 | 0.0 | 4.8 | 0.00 | 0.00 | 0.00 | 79 | 1008.6 |
| 20260506033023 | 15 | 324 | 1.6 | 6.4 | 0.00 | 0.00 | 0.00 | 79 | 1008.5 |
| 20260506031538 | 15 | 337 | 1.6 | 6.4 | 0.00 | 0.00 | 0.00 | 79 | 1008.5 |
| 20260506030020 | 15 | 349 | 0.0 | 8.0 | 0.00 | 0.00 | 0.00 | 79 | 1007.8 |
| 20260506024520 | 15 | 330 | 1.6 | 4.8 | 0.00 | 0.00 | 0.00 | 79 | 1007.6 |
| 20260506023015 | 15 | 280 | 0.0 | 3.2 | 0.00 | 0.00 | 0.00 | 78 | 1007.6 |
| 20260506021513 | 16 | 268 | 0.0 | 3.2 | 0.00 | 0.00 | 0.00 | 77 | 1007.3 |
| 20260506020011 | 16 | 298 | 0.0 | 4.8 | 0.00 | 0.00 | 0.00 | 76 | 1006.7 |
| 20260506014511 | 17 | 330 | 1.6 | 6.4 | 0.00 | 0.00 | 0.00 | 75 | 1006.0 |
| 20260506013002 | 17 | 18 | 3.2 | 11.3 | 0.00 | 0.00 | 0.00 | 75 | 1005.2 |
| 20260506011607 | 17 | 333 | 1.6 | 8.0 | 0.00 | 0.00 | 0.00 | 74 | 1004.8 |
| 20260506010059 | 18 | 326 | 0.0 | 8.0 | 0.00 | 0.00 | 0.00 | 73 | 1004.9 |
| 20260506004555 | 18 | 62 | 1.6 | 8.0 | 0.00 | 0.00 | 0.00 | 72 | 1004.6 |
| 20260506003053 | 18 | 89 | 3.2 | 9.7 | 0.00 | 0.00 | 0.00 | 71 | 1004.5 |
| 20260506001554 | 19 | 66 | 0.0 | 6.4 | 0.00 | 0.00 | 0.00 | 72 | 1004.9 |
| 20260506000049 | 19 | 333 | 0.0 | 8.0 | 0.00 | 0.00 | 0.00 | 71 | 1004.4 |
| 20260505234556 | 20 | 330 | 4.8 | 8.0 | 0.00 | 0.00 | 0.00 | 70 | 1004.4 |
| 20260505233043 | 21 | 321 | 0.0 | 4.8 | 0.00 | 0.00 | 0.00 | 70 | 1004.4 |
| 20260505231548 | 21 | 340 | 3.2 | 8.0 | 0.00 | 0.00 | 0.00 | 69 | 1003.9 |
| 20260505230043 | 22 | 337 | 1.6 | 6.4 | 0.00 | 0.00 | 0.00 | 68 | 1003.7 |
| 20260505224541 | 22 | 297 | 0.0 | 6.4 | 0.00 | 0.00 | 0.00 | 68 | 1003.9 |
| 20260505223050 | 23 | 323 | 4.8 | 9.7 | 0.00 | 0.00 | 0.00 | 65 | 1003.9 |
| 20260505221539 | 23 | 330 | 1.6 | 6.4 | 0.00 | 0.00 | 0.00 | 64 | 1003.7 |
| 20260505220041 | 24 | 354 | 3.2 | 6.4 | 0.00 | 0.00 | 0.00 | 62 | 1003.6 |
| 20260505214547 | 25 | 322 | 1.6 | 8.0 | 0.00 | 0.00 | 0.00 | 62 | 1003.3 |
| 20260505213038 | 25 | 343 | 4.8 | 8.0 | 0.00 | 0.00 | 0.00 | 61 | 1002.9 |
| 20260505211537 | 26 | 307 | 0.0 | 6.4 | 0.00 | 0.00 | 0.00 | 58 | 1003.3 |
| 20260505210036 | 26 | 291 | 3.2 | 8.0 | 0.00 | 0.00 | 0.00 | 59 | 1003.5 |
| 20260505204539 | 26 | 337 | 3.2 | 9.7 | 0.00 | 0.00 | 0.00 | 59 | 1003.4 |
| 20260505203035 | 27 | 262 | 1.6 | 9.7 | 0.00 | 0.00 | 0.00 | 60 | 1003.4 |
| 20260505201536 | 27 | 349 | 3.2 | 12.9 | 0.00 | 0.00 | 0.00 | 58 | 1003.5 |
| 20260505200041 | 28 | 335 | 3.2 | 14.5 | 0.00 | 0.00 | 0.00 | 49 | 1003.4 |
| 20260505194537 | 27 | 338 | 1.6 | 16.1 | 0.00 | 0.00 | 0.00 | 50 | 1003.6 |
| 20260505193031 | 27 | 354 | 3.2 | 11.3 | 0.00 | 0.00 | 0.00 | 45 | 1003.2 |
| 20260505191530 | 28 | 343 | 6.4 | 20.9 | 0.00 | 0.00 | 0.00 | 47 | 1003.1 |
| 20260505190037 | 29 | 254 | 8.0 | 22.5 | 0.00 | 0.00 | 0.00 | 52 | 1002.8 |
| 20260505184526 | 28 | 241 | 8.0 | 19.3 | 0.00 | 0.00 | 0.00 | 56 | 1002.9 |
| 20260505183026 | 28 | 290 | 6.4 | 20.9 | 0.00 | 0.00 | 0.00 | 55 | 1003.0 |
| 20260505181525 | 28 | 262 | 4.8 | 22.5 | 0.00 | 0.00 | 0.00 | 55 | 1002.7 |
| 20260505180022 | 28 | 276 | 6.4 | 16.1 | 0.00 | 0.00 | 0.00 | 59 | 1002.8 |
| 20260505174519 | 27 | 247 | 6.4 | 19.3 | 0.00 | 0.00 | 0.00 | 66 | 1002.9 |
| 20260505173016 | 27 | 231 | 9.7 | 20.9 | 0.00 | 0.00 | 0.00 | 69 | 1002.8 |
| 20260505171521 | 26 | 250 | 12.9 | 22.5 | 0.00 | 0.00 | 0.00 | 70 | 1002.8 |
| 20260505170015 | 25 | 216 | 8.0 | 20.9 | 0.00 | 0.00 | 0.00 | 73 | 1002.7 |
| 20260505164508 | 25 | 256 | 11.3 | 24.1 | 0.00 | 0.00 | 0.00 | 74 | 1002.8 |
| 20260505163007 | 25 | 226 | 8.0 | 19.3 | 0.00 | 0.00 | 0.00 | 75 | 1002.6 |
| 20260505161502 | 24 | 233 | 8.0 | 16.1 | 0.00 | 0.00 | 0.00 | 74 | 1002.4 |
| 20260505153049 | 23 | 241 | 9.7 | 14.5 | 0.00 | 0.00 | 0.00 | 77 | 1002.3 |
| 20260505151548 | 23 | 219 | 6.4 | 14.5 | 0.00 | 0.00 | 0.00 | 76 | 1002.4 |
| 20260505130104 | 21 | 256 | 6.4 | 14.5 | 0.00 | 0.00 | 0.00 | 80 | 1001.8 |
| 20260505124546 | 21 | 232 | 6.4 | 16.1 | 0.00 | 0.00 | 0.00 | 81 | 1001.4 |
| 20260505123045 | 21 | 199 | 4.8 | 16.1 | 0.00 | 0.00 | 0.00 | 81 | 1001.5 |
| 20260505121540 | 20 | 227 | 6.4 | 12.9 | 0.00 | 0.00 | 0.00 | 82 | 1001.3 |
| 20260505120040 | 20 | 210 | 6.4 | 9.7 | 0.00 | 0.00 | 0.00 | 82 | 1001.3 |
| 20260505114539 | 20 | 214 | 4.8 | 12.9 | 0.00 | 0.00 | 0.00 | 81 | 1001.2 |
| 20260505113041 | 20 | 214 | 6.4 | 11.3 | 0.00 | 0.00 | 0.00 | 81 | 1001.1 |
| 20260505111540 | 21 | 203 | 4.8 | 11.3 | 0.00 | 0.00 | 0.00 | 80 | 1001.2 |
| 20260505101532 | 21 | 200 | 9.7 | 16.1 | 0.00 | 0.00 | 0.00 | 78 | 1001.1 |
| 20260505100032 | 21 | 233 | 8.0 | 17.7 | 0.00 | 0.00 | 0.00 | 77 | 1001.2 |
| 20260505094529 | 21 | 220 | 6.4 | 17.7 | 0.00 | 0.00 | 0.00 | 77 | 1001.1 |
| 20260505093027 | 22 | 233 | 9.7 | 17.7 | 0.00 | 0.00 | 0.00 | 76 | 1001.1 |
| 20260505091524 | 22 | 225 | 6.4 | 17.7 | 0.00 | 0.00 | 0.00 | 76 | 1001.1 |
| 20260505090028 | 22 | 226 | 8.0 | 14.5 | 0.00 | 0.00 | 0.00 | 76 | 1001.0 |
| 20260505084526 | 22 | 221 | 8.0 | 19.3 | 0.00 | 0.00 | 0.00 | 76 | 1001.2 |
| 20260505083018 | 22 | 216 | 9.7 | 20.9 | 0.00 | 0.00 | 0.00 | 75 | 1001.4 |
| 20260505081514 | 22 | 216 | 8.0 | 16.1 | 0.00 | 0.00 | 0.00 | 75 | 1001.5 |
| 20260505080012 | 22 | 225 | 9.7 | 19.3 | 0.00 | 0.00 | 0.00 | 74 | 1001.7 |
| 20260505074509 | 22 | 220 | 9.7 | 19.3 | 0.00 | 0.00 | 0.00 | 74 | 1001.9 |
| 20260505073009 | 22 | 217 | 9.7 | 19.3 | 0.00 | 0.00 | 0.00 | 73 | 1002.1 |
| 20260505071513 | 22 | 245 | 14.5 | 25.7 | 0.00 | 0.00 | 0.00 | 72 | 1002.2 |